When you browse on this site, cookies collect data to enhance your experience and personalize the content and advertising you see.
Visit our Privacy Policy to learn more. By continuing to use the site, you agree to this use of cookies and data.
  • In Sweden
  • List of Countries
  • For 7 days
  • Water Temperature
  • Weather Map
  • Weather Widgets
  • user-avatar
    Login

    Hourly Weather Ban Chiang

    Today, 21 August, Wednesday

    Time Temperature Precipitation Wind Pressure Humidity
    00:00 +27°C° 0.6 mm 2 mps 739 mmHg 90%
    01:00 +26°C° 0 mm 2 mps 738 mmHg 92%
    02:00 +26°C° 0.1 mm 2 mps 738 mmHg 92%
    03:00 +26°C° 0.1 mm 2 mps 738 mmHg 93%
    04:00 +26°C° 0.1 mm 2 mps 738 mmHg 93%
    05:00 +26°C° 0.1 mm 2 mps 738 mmHg 93%
    06:00 +26°C° 0.1 mm 3 mps 739 mmHg 93%
    07:00 +26°C° 0.1 mm 3 mps 739 mmHg 93%
    08:00 +27°C° 0.5 mm 3 mps 739 mmHg 91%
    09:00 +27°C° 0.5 mm 4 mps 740 mmHg 90%
    10:00 +27°C° 0.5 mm 4 mps 740 mmHg 89%
    11:00 +28°C° 0.2 mm 4 mps 739 mmHg 87%
    12:00 +28°C° 0.2 mm 4 mps 739 mmHg 86%
    13:00 +29°C° 0.2 mm 4 mps 738 mmHg 84%
    14:00 +30°C° 0.8 mm 4 mps 738 mmHg 82%
    15:00 +30°C° 0.8 mm 4 mps 738 mmHg 80%
    16:00 +32°C° 0.8 mm 4 mps 737 mmHg 77%
    17:00 +30°C° 0.2 mm 3 mps 738 mmHg 81%
    18:00 +29°C° 0.2 mm 3 mps 738 mmHg 84%
    19:00 +28°C° 0.2 mm 2 mps 738 mmHg 88%
    20:00 +28°C° 0.6 mm 3 mps 739 mmHg 88%
    21:00 +28°C° 0.6 mm 3 mps 740 mmHg 89%
    22:00 +27°C° 0.6 mm 3 mps 740 mmHg 89%
    23:00 +27°C° 0.2 mm 4 mps 740 mmHg 89%

    Tomorrow, 22 August, Thursday

    Time Temperature Precipitation Wind Pressure Humidity
    00:00 +27°C° 0.2 mm 4 mps 740 mmHg 89%
    01:00 +27°C° 0.2 mm 5 mps 739 mmHg 89%
    02:00 +27°C° 0.1 mm 4 mps 739 mmHg 90%
    03:00 +26°C° 0.1 mm 4 mps 739 mmHg 91%
    04:00 +26°C° 0.1 mm 3 mps 739 mmHg 92%
    05:00 +26°C° 0.2 mm 3 mps 739 mmHg 93%
    06:00 +26°C° 0.2 mm 3 mps 740 mmHg 93%
    07:00 +26°C° 0.2 mm 3 mps 740 mmHg 93%
    08:00 +27°C° 1.2 mm 3 mps 740 mmHg 90%
    09:00 +28°C° 1.2 mm 4 mps 741 mmHg 87%
    10:00 +29°C° 1.2 mm 4 mps 741 mmHg 84%
    11:00 +28°C° 1.6 mm 4 mps 740 mmHg 86%
    12:00 +28°C° 1.6 mm 3 mps 740 mmHg 88%
    13:00 +27°C° 1.6 mm 2 mps 740 mmHg 91%
    14:00 +27°C° 0.5 mm 2 mps 739 mmHg 90%
    15:00 +27°C° 0.5 mm 1 mps 739 mmHg 89%
    16:00 +27°C° 0.5 mm 1 mps 738 mmHg 88%
    17:00 +27°C° 0.3 mm 1 mps 739 mmHg 89%
    18:00 +27°C° 0.3 mm 1 mps 739 mmHg 90%
    19:00 +27°C° 0.3 mm 1 mps 739 mmHg 90%
    20:00 +27°C° 0.8 mm 1 mps 740 mmHg 90%
    21:00 +27°C° 0.8 mm 1 mps 740 mmHg 89%
    22:00 +27°C° 0.8 mm 1 mps 741 mmHg 89%
    23:00 +27°C° 1.3 mm 1 mps 741 mmHg 90%

    Day after tomorrow, 23 August, Friday

    Time Temperature Precipitation Wind Pressure Humidity
    00:00 +26°C° 1.3 mm 1 mps 741 mmHg 91%
    01:00 +26°C° 1.3 mm 1 mps 740 mmHg 92%
    02:00 +26°C° 0.5 mm 1 mps 740 mmHg 93%
    03:00 +26°C° 0.5 mm 1 mps 740 mmHg 93%
    04:00 +26°C° 0.5 mm 1 mps 740 mmHg 94%
    05:00 +26°C° 0.4 mm 1 mps 740 mmHg 93%
    06:00 +26°C° 0.4 mm 1 mps 740 mmHg 93%
    07:00 +24°C° 0.4 mm 0 mps 741 mmHg 93%
    08:00 +24°C° 0.1 mm 0 mps 741 mmHg 91%
    09:00 +27°C° 0.1 mm 1 mps 742 mmHg 90%
    10:00 +27°C° 0.1 mm 1 mps 742 mmHg 89%
    11:00 +28°C° 0.4 mm 1 mps 741 mmHg 84%
    12:00 +29°C° 0.4 mm 2 mps 741 mmHg 80%
    13:00 +31°C° 0.4 mm 2 mps 740 mmHg 76%
    14:00 +30°C° 1 mm 2 mps 740 mmHg 77%
    15:00 +30°C° 1 mm 2 mps 739 mmHg 78%
    16:00 +30°C° 1 mm 2 mps 739 mmHg 78%
    17:00 +29°C° 0.3 mm 2 mps 739 mmHg 82%
    18:00 +28°C° 0.3 mm 2 mps 739 mmHg 85%
    19:00 +27°C° 0.3 mm 2 mps 740 mmHg 89%
    20:00 +27°C° 0 mm 2 mps 740 mmHg 89%
    21:00 +27°C° 0 mm 1 mps 741 mmHg 89%
    22:00 +27°C° 0 mm 1 mps 741 mmHg 89%
    23:00 +27°C° 0 mm 1 mps 741 mmHg 90%

    24 August, Saturday

    Time Temperature Precipitation Wind Pressure Humidity
    00:00 +26°C° 0 mm 1 mps 741 mmHg 90%
    01:00 +26°C° 0 mm 1 mps 740 mmHg 91%
    02:00 +26°C° 0 mm 1 mps 740 mmHg 91%
    03:00 +26°C° 0 mm 1 mps 740 mmHg 91%
    04:00 +26°C° 0 mm 1 mps 740 mmHg 90%
    05:00 +26°C° 0 mm 1 mps 740 mmHg 90%
    06:00 +27°C° 0 mm 1 mps 740 mmHg 89%
    07:00 +27°C° 0 mm 1 mps 740 mmHg 88%
    08:00 +28°C° 0 mm 1 mps 741 mmHg 85%
    09:00 +28°C° 0 mm 1 mps 741 mmHg 82%
    10:00 +29°C° 0 mm 1 mps 741 mmHg 78%
    11:00 +30°C° 0.3 mm 2 mps 741 mmHg 76%
    12:00 +30°C° 0.3 mm 2 mps 740 mmHg 74%
    13:00 +31°C° 0.3 mm 2 mps 739 mmHg 71%
    14:00 +31°C° 0.1 mm 2 mps 739 mmHg 71%
    15:00 +31°C° 0.1 mm 2 mps 738 mmHg 72%
    16:00 +31°C° 0.1 mm 2 mps 738 mmHg 72%
    17:00 +30°C° 0.4 mm 1 mps 738 mmHg 76%
    18:00 +29°C° 0.4 mm 1 mps 738 mmHg 80%
    19:00 +28°C° 0.4 mm 1 mps 739 mmHg 85%
    20:00 +28°C° 1.5 mm 1 mps 739 mmHg 86%
    21:00 +28°C° 1.5 mm 1 mps 740 mmHg 88%
    22:00 +27°C° 1.5 mm 1 mps 741 mmHg 89%
    23:00 +27°C° 3.1 mm 1 mps 740 mmHg 91%

    25 August, Sunday

    Time Temperature Precipitation Wind Pressure Humidity
    00:00 +26°C° 3.1 mm 1 mps 740 mmHg 94%
    01:00 +26°C° 3.1 mm 1 mps 740 mmHg 96%
    02:00 +26°C° 4.5 mm 2 mps 739 mmHg 96%
    03:00 +26°C° 4.5 mm 2 mps 739 mmHg 97%
    04:00 +25°C° 4.5 mm 2 mps 739 mmHg 97%
    05:00 +25°C° 2.9 mm 2 mps 739 mmHg 97%
    06:00 +25°C° 2.9 mm 2 mps 740 mmHg 97%
    07:00 +25°C° 2.9 mm 2 mps 740 mmHg 96%
    08:00 +26°C° 0.3 mm 2 mps 740 mmHg 94%
    09:00 +27°C° 0.3 mm 2 mps 740 mmHg 92%
    10:00 +27°C° 0.3 mm 2 mps 740 mmHg 89%
    11:00 +28°C° 0.4 mm 3 mps 740 mmHg 86%
    12:00 +29°C° 0.4 mm 3 mps 740 mmHg 82%
    13:00 +30°C° 0.4 mm 3 mps 739 mmHg 78%
    14:00 +30°C° 0.6 mm 3 mps 739 mmHg 77%
    15:00 +30°C° 0.6 mm 2 mps 738 mmHg 77%
    16:00 +30°C° 0.6 mm 2 mps 738 mmHg 76%
    17:00 +29°C° 0.6 mm 2 mps 738 mmHg 80%
    18:00 +28°C° 0.6 mm 2 mps 738 mmHg 84%
    19:00 +27°C° 0.6 mm 2 mps 739 mmHg 88%
    20:00 +27°C° 0.7 mm 2 mps 739 mmHg 89%
    21:00 +27°C° 0.7 mm 2 mps 740 mmHg 90%
    22:00 +27°C° 0.7 mm 2 mps 741 mmHg 91%
    23:00 +26°C° 0.6 mm 2 mps 740 mmHg 92%

    26 August, Monday

    Time Temperature Precipitation Wind Pressure Humidity
    00:00 +26°C° 0.6 mm 2 mps 740 mmHg 93%
    01:00 +26°C° 0.6 mm 2 mps 740 mmHg 94%
    02:00 +26°C° 0.1 mm 1 mps 740 mmHg 94%
    03:00 +25°C° 0.1 mm 1 mps 739 mmHg 95%
    04:00 +25°C° 0.1 mm 1 mps 739 mmHg 95%
    05:00 +26°C° 0 mm 1 mps 739 mmHg 95%
    06:00 +26°C° 0 mm 1 mps 740 mmHg 94%
    07:00 +26°C° 0 mm 1 mps 740 mmHg 93%
    08:00 +27°C° 0.2 mm 1 mps 740 mmHg 89%
    09:00 +28°C° 0.2 mm 1 mps 740 mmHg 85%
    10:00 +29°C° 0.2 mm 1 mps 741 mmHg 81%
    11:00 +30°C° 1.2 mm 1 mps 740 mmHg 78%
    12:00 +31°C° 1.2 mm 1 mps 739 mmHg 75%
    13:00 +32°C° 1.2 mm 2 mps 739 mmHg 72%
    14:00 +32°C° 1.8 mm 2 mps 738 mmHg 73%
    15:00 +32°C° 1.8 mm 2 mps 738 mmHg 73%
    16:00 +32°C° 1.8 mm 2 mps 737 mmHg 73%
    17:00 +31°C° 1.5 mm 2 mps 737 mmHg 78%
    18:00 +30°C° 1.5 mm 2 mps 738 mmHg 82%
    19:00 +28°C° 1.5 mm 2 mps 738 mmHg 87%
    20:00 +28°C° 0.4 mm 2 mps 739 mmHg 88%
    21:00 +28°C° 0.4 mm 3 mps 739 mmHg 89%
    22:00 +28°C° 0.4 mm 3 mps 740 mmHg 90%
    23:00 +27°C° 0.8 mm 3 mps 740 mmHg 90%
    Show more